Location: ASU Dark Sky Observatory
(36.2504°N, 81.4125°W)
Time: 05:33:45
(UTC-04:00)

Amateur Radio Satellites - All Passes

Search period start: 17 September 2014 05:03
Search period end: 18 September 2014 05:03
Location: ASU Dark Sky Observatory, 36.2504°N, 81.4125°W

Satellite Date Start Highest point End Downlink Frequencies (MHz)
Time Altitude Azimuth
PANSAT 17 Sep 05:12:11 05:15:22 25° 179° (S) 05:18:34 not established
OPAL 17 Sep 05:19:58 05:25:07 88° 254° (WSW) 05:30:22 ?
Saudisat 1A 17 Sep 05:21:19 05:21:43 10° 253° (WSW) 05:22:08 436.775 MHz
Uosat F 17 Sep 05:26:26 05:31:16 47° 100° (E) 05:36:05 435.120 FM
Gurwin Techsat 1B 17 Sep 05:30:50 05:34:39 20° 294° (WNW) 05:38:27 435.225 FM
Oscar 10/S400 17 Sep 05:31:32 06:18:25 14° 257° (WSW) 07:32:30 145.825 - 145.975 CW/USB, Beacon 145.810 USB
KITSAT 1 17 Sep 05:36:02 05:43:58 56° 57° (ENE) 05:51:50 435.175 FM
AO-7 17 Sep 05:38:50 05:47:04 65° 104° (ESE) 05:55:15 29.400 - 29.500 MHz
ISS 17 Sep 05:40:53 05:42:56 15° 334° (NNW) 05:44:59 145.800 FM
STRAND 1 17 Sep 06:00:32 06:01:52 11° 61° (ENE) 06:03:12 ?
TMSAT-1 17 Sep 06:11:25 06:13:19 12° 298° (WNW) 06:15:12 436.925 FM
JAS-2 17 Sep 06:44:56 06:50:38 42° 100° (E) 06:57:00 435.800 - 435.900 CW/SSB, 435.910 FM
Hamsat 17 Sep 06:51:00 06:54:58 37° 98° (E) 06:58:52 145.90 MHz
PANSAT 17 Sep 06:52:14 06:55:03 19° 192° (SSW) 06:57:52 not established
Uosat F 17 Sep 07:06:18 07:09:39 18° 295° (WNW) 07:13:01 435.120 FM
RS-15 17 Sep 07:12:07 07:22:09 39° 314° (NW) 07:32:10 29.354 - 29.394 USB, Beacon 29.352 USB
KITSAT 1 17 Sep 07:32:13 07:38:52 29° 254° (WSW) 07:45:31 435.175 FM
AO-7 17 Sep 07:32:41 07:39:12 27° 302° (WNW) 07:45:43 29.400 - 29.500 MHz
STRAND 1 17 Sep 07:35:15 07:40:19 81° 257° (WSW) 07:45:26 ?
Hamsat 17 Sep 08:27:59 08:30:35 16° 293° (WNW) 08:33:11 145.90 MHz
JAS-2 17 Sep 08:30:33 08:35:31 28° 291° (WNW) 08:40:58 435.800 - 435.900 CW/SSB, 435.910 FM
SO-50 17 Sep 08:34:04 08:38:48 54° 57° (ENE) 08:43:34 436.795 FM
SO-67 17 Sep 08:41:58 08:45:24 66° 283° (WNW) 08:48:49 435.3500 MHz FM
HO-68 17 Sep 09:27:14 09:32:59 25° 95° (E) 09:38:41 435.675 MHz FM
MaSat-1 17 Sep 09:30:29 09:35:28 77° 112° (ESE) 09:40:30 437.345 MHz
RS-15 17 Sep 09:33:41 09:39:00 14° 346° (NNW) 09:44:20 29.354 - 29.394 USB, Beacon 29.352 USB
UKube-1 17 Sep 10:05:03 10:08:08 19° 95° (E) 10:11:12 145.840 MHz, 145.915 MHz
SO-50 17 Sep 10:16:05 10:18:55 16° 252° (WSW) 10:21:46 436.795 FM
UOSAT-12 17 Sep 10:27:03 10:31:44 60° 58° (ENE) 10:36:19 437.025 FM, 437.400 FM
ISS 17 Sep 10:33:44 10:36:43 29° 34° (NE) 10:39:41 145.800 FM
FUNcube-1 17 Sep 11:08:59 11:13:04 30° 96° (E) 11:17:05 145.950 - 145.970 MHz USB
MaSat-1 17 Sep 11:10:15 11:12:48 14° 308° (NW) 11:15:20 437.345 MHz
HO-68 17 Sep 11:13:59 11:20:56 54° 291° (WNW) 11:27:51 435.675 MHz FM
Oscar 11 17 Sep 11:26:06 11:30:25 65° 285° (WNW) 11:34:42 145.825 FM, Beacon 2401.500 USB
UKube-1 17 Sep 11:40:29 11:44:22 32° 289° (WNW) 11:48:14 145.840 MHz, 145.915 MHz
RS-15 17 Sep 11:51:03 11:58:02 18° 25° (NNE) 12:05:08 29.354 - 29.394 USB, Beacon 29.352 USB
UOSAT-12 17 Sep 12:09:14 12:11:18 13° 253° (WSW) 12:13:22 437.025 FM, 437.400 FM
ISS 17 Sep 12:10:35 12:13:20 24° 229° (SW) 12:16:05 145.800 FM
Sapphire 17 Sep 12:38:22 12:43:01 30° 108° (ESE) 12:47:42 437.095 MHz 1200 baud AX-25 AFSK
Oscar 19 17 Sep 12:43:31 12:44:30 11° 61° (ENE) 12:45:29 437.125 CW, 437.150 USB
FUNcube-1 17 Sep 12:45:38 12:49:15 23° 291° (WNW) 12:52:51 145.950 - 145.970 MHz USB
PCSat 17 Sep 13:04:54 13:10:11 59° 113° (ESE) 13:15:31 145.825 MHz
Oscar 16 17 Sep 13:18:15 13:22:26 25° 67° (ENE) 13:26:38 437.025 USB, Beacon 2401.1428
JAS-1B 17 Sep 13:28:52 13:35:45 27° 66° (ENE) 13:41:48 435.800 - 435.900 CW/SSB
AO-Echo 17 Sep 13:52:03 13:55:44 23° 68° (ENE) 13:59:22 ?
ITAMSAT 1 17 Sep 13:56:34 14:00:38 24° 67° (ENE) 14:04:43 435.822 SSB
Uribyol 2 17 Sep 14:01:05 14:05:26 28° 68° (ENE) 14:09:48 436.500 FM
RS-15 17 Sep 14:02:44 14:13:38 56° 53° (NE) 14:24:55 29.354 - 29.394 USB, Beacon 29.352 USB
TMSAT-1 17 Sep 14:11:50 14:13:05 11° 61° (ENE) 14:14:20 436.925 FM
Oscar 19 17 Sep 14:17:52 14:23:03 87° 257° (WSW) 14:28:17 437.125 CW, 437.150 USB
Sapphire 17 Sep 14:21:29 14:26:19 33° 304° (NW) 14:31:12 437.095 MHz 1200 baud AX-25 AFSK
AO-27 17 Sep 14:29:48 14:34:47 52° 72° (ENE) 14:39:48 436.795 MHz FM
AO-7 17 Sep 14:47:56 14:51:33 14° 50° (NE) 14:55:10 29.400 - 29.500 MHz
PCSat 17 Sep 14:50:12 14:54:00 19° 310° (NW) 14:57:48 145.825 MHz
Oscar 16 17 Sep 14:56:53 15:01:34 34° 262° (W) 15:06:18 437.025 USB, Beacon 2401.1428
Gurwin Techsat 1B 17 Sep 15:08:25 15:13:35 56° 73° (ENE) 15:18:46 435.225 FM
JAS-1B 17 Sep 15:16:58 15:25:55 62° 258° (WSW) 15:33:30 435.800 - 435.900 CW/SSB
Oscar 10/S400 17 Sep 15:25:30 15:44:05 31° 149° (SSE) 16:01:29 145.825 - 145.975 CW/USB, Beacon 145.810 USB
AO-Echo 17 Sep 15:30:03 15:34:19 32° 262° (W) 15:38:33 ?
ITAMSAT 1 17 Sep 15:35:11 15:39:54 36° 262° (W) 15:44:39 435.822 SSB
Uribyol 2 17 Sep 15:40:18 15:44:47 30° 263° (W) 15:49:19 436.500 FM
TMSAT-1 17 Sep 15:46:55 15:52:13 86° 257° (WSW) 15:57:32 436.925 FM
AO-27 17 Sep 16:11:26 16:14:34 16° 267° (W) 16:17:42 436.795 MHz FM
RS-15 17 Sep 16:15:35 16:25:35 40° 253° (WSW) 16:36:01 29.354 - 29.394 USB, Beacon 29.352 USB
AO-7 17 Sep 16:34:36 16:42:50 69° 69° (ENE) 16:51:03 29.400 - 29.500 MHz
Uosat F 17 Sep 16:37:08 16:41:56 49° 72° (ENE) 16:46:45 435.120 FM
Gurwin Techsat 1B 17 Sep 16:50:45 16:53:51 16° 268° (W) 16:56:58 435.225 FM
OPAL 17 Sep 17:33:06 17:37:38 30° 99° (E) 17:42:04 ?
Hamsat 17 Sep 17:42:19 17:45:33 21° 69° (ENE) 17:48:48 145.90 MHz
Saudisat 1A 17 Sep 17:42:38 17:46:32 32° 113° (ESE) 17:50:27 436.775 MHz
Uosat F 17 Sep 18:17:55 18:20:57 16° 267° (W) 18:24:00 435.120 FM
AO-7 17 Sep 18:29:58 18:36:07 23° 265° (W) 18:42:20 29.400 - 29.500 MHz
JAS-2 17 Sep 18:40:02 18:45:28 83° 257° (WSW) 18:50:39 435.800 - 435.900 CW/SSB, 435.910 FM
OPAL 17 Sep 19:11:59 19:16:23 29° 294° (WNW) 19:20:44 ?
SO-67 17 Sep 19:12:44 19:15:33 24° 72° (ENE) 19:18:22 435.3500 MHz FM
Hamsat 17 Sep 19:17:27 19:21:17 30° 263° (W) 19:25:09 145.90 MHz
Saudisat 1A 17 Sep 19:22:32 19:26:07 24° 309° (NW) 19:29:42 436.775 MHz
MaSat-1 17 Sep 19:27:00 19:30:48 87° 248° (WSW) 19:34:00 437.345 MHz
STRAND 1 17 Sep 19:48:40 19:53:32 42° 99° (E) 19:58:23 ?
HO-68 17 Sep 19:55:32 19:59:19 15° 56° (ENE) 20:03:06 435.675 MHz FM
KITSAT 1 17 Sep 20:00:59 20:08:47 55° 112° (ESE) 20:16:37 435.175 FM
SO-67 17 Sep 20:46:29 20:48:32 15° 266° (W) 20:50:37 435.3500 MHz FM
UKube-1 17 Sep 20:59:32 21:01:24 13° 65° (ENE) 21:03:17 145.840 MHz, 145.915 MHz
STRAND 1 17 Sep 21:28:39 21:32:23 21° 294° (WNW) 21:36:07 ?
Sapphire 17 Sep 21:29:26 21:32:48 16° 48° (NE) 21:36:09 437.095 MHz 1200 baud AX-25 AFSK
HO-68 17 Sep 21:38:51 21:46:00 87° 73° (ENE) 21:53:10 435.675 MHz FM
AO-40 17 Sep 21:50:15 03:20:59 44° 149° (SSE) 04:55:50 Beacon 2401.320
PCSat 17 Sep 21:55:50 22:00:29 28° 54° (NE) 22:05:06 145.825 MHz
KITSAT 1 17 Sep 21:57:23 22:04:29 33° 310° (NW) 22:11:38 435.175 FM
FUNcube-1 17 Sep 22:03:46 22:06:43 18° 67° (ENE) 22:09:43 145.950 - 145.970 MHz USB
Oscar 11 17 Sep 22:18:11 22:22:30 69° 76° (ENE) 22:26:52 145.825 FM, Beacon 2401.500 USB
UKube-1 17 Sep 22:32:55 22:37:07 52° 259° (W) 22:41:22 145.840 MHz, 145.915 MHz
SO-50 17 Sep 22:47:06 22:51:00 31° 113° (ESE) 22:54:59 436.795 FM
Sapphire 17 Sep 23:11:21 23:16:46 72° 246° (WSW) 23:22:09 437.095 MHz 1200 baud AX-25 AFSK
HO-68 17 Sep 23:31:05 23:34:26 14° 269° (W) 23:37:49 435.675 MHz FM
FUNcube-1 17 Sep 23:38:47 23:42:47 36° 263° (W) 23:46:54 145.950 - 145.970 MHz USB
PCSat 17 Sep 23:38:59 23:43:55 37° 251° (WSW) 23:48:50 145.825 MHz
SO-50 18 Sep 00:27:48 00:31:32 25° 309° (NW) 00:35:22 436.795 FM
UOSAT-12 18 Sep 00:36:00 00:40:06 33° 113° (ESE) 00:44:17 437.025 FM, 437.400 FM
Saudisat 1A 18 Sep 02:12:33 02:15:03 15° 46° (NE) 02:17:33 436.775 MHz
UOSAT-12 18 Sep 02:16:24 02:20:15 26° 309° (NW) 02:24:11 437.025 FM, 437.400 FM
Uribyol 2 18 Sep 02:18:15 02:20:10 12° 91° (E) 02:22:05 436.500 FM
Oscar 19 18 Sep 02:32:27 02:37:20 41° 99° (E) 02:42:09 437.125 CW, 437.150 USB
AO-27 18 Sep 02:46:08 02:50:14 23° 95° (E) 02:54:19 436.795 MHz FM
JAS-1B 18 Sep 03:06:21 03:11:42 40° 99° (E) 03:17:03 435.800 - 435.900 CW/SSB
PANSAT 18 Sep 03:07:52 03:10:31 18° 167° (SSE) 03:13:11 not established
Oscar 16 18 Sep 03:10:43 03:15:54 79° 285° (WNW) 03:21:03 437.025 USB, Beacon 2401.1428
ISS 18 Sep 03:14:07 03:17:12 37° 133° (SE) 03:20:19 145.800 FM
Gurwin Techsat 1B 18 Sep 03:27:48 03:32:18 27° 96° (E) 03:36:46 435.225 FM
AO-Echo 18 Sep 03:38:48 03:43:40 86° 284° (WNW) 03:48:39 ?
ITAMSAT 1 18 Sep 03:50:08 03:55:22 82° 285° (WNW) 04:00:35 435.822 SSB
Saudisat 1A 18 Sep 03:50:39 03:55:01 60° 243° (WSW) 03:59:20 436.775 MHz
Uribyol 2 18 Sep 03:54:52 04:00:05 70° 286° (WNW) 04:05:16 436.500 FM
KITSAT 1 18 Sep 03:58:00 04:03:28 19° 40° (NE) 04:08:55 435.175 FM
TMSAT-1 18 Sep 04:05:37 04:10:43 47° 99° (E) 04:15:48 436.925 FM
Oscar 19 18 Sep 04:12:32 04:16:21 21° 294° (WNW) 04:20:09 437.125 CW, 437.150 USB
RS-15 18 Sep 04:23:22 04:33:37 45° 109° (ESE) 04:43:39 29.354 - 29.394 USB, Beacon 29.352 USB
AO-27 18 Sep 04:25:02 04:29:48 37° 290° (WNW) 04:34:33 436.795 MHz FM
AO-7 18 Sep 04:40:10 04:46:46 26° 96° (E) 04:53:19 29.400 - 29.500 MHz
OPAL 18 Sep 04:45:14 04:50:03 41° 69° (ENE) 04:54:55 ?
PANSAT 18 Sep 04:46:59 04:50:11 25° 179° (S) 04:53:23 not established
Uosat F 18 Sep 04:48:27 04:51:56 19° 94° (E) 04:55:25 435.120 FM
ISS 18 Sep 04:51:19 04:54:00 22° 329° (NNW) 04:56:41 145.800 FM
